Weather in Kayerkan

Russia / Krasnoyarsk Krai     69°21′08″N   87°45′11″E
В апреле 2022 года жителям России запретили посещать сайт meteo.paraplan.net по решению Генеральной прокуратуры. Аудитория сайта уменьшилась в 10 раз. Владельцы сайта не видят смысла в поддержке погодного сервера в таких условиях. Сайт будет закрыт в октябре.
temp.,
°C
wind,
m/s
gust,
m/s
humid.,
%
clouds,
%
prec.,
mm/h
press.,
hPa
HPBL,
m
30 september, fri
fri3001:00−3wnw119998 1.2 102633
04:00−4w119898 0.3 102622
07:00−4w1198100 0.8 102623
10:00−2nw2598100 0.8 1026247
13:00−1nnw4697100 1.3 1027456
16:00−1nnw479699 0.4 1028513
19:00−2nw2597100 0.6 1028182
22:00−2nw2399100 0.3 1029106
1 october, sat
sat101:00−4w229999 0.7 102921
04:00−3w2499100 0.4 1029114
07:00−5wsw2298100 0.8 102925
10:00−4wsw2597100 0.2 1029168
13:00−3wsw3594100 0.4 1029294
16:00−3sw359399 0.1 1029180
19:00−3ssw3694100 0.1 1029200
22:00−3s3591100 0.0 1028158
2 october, sun
sun201:00−3ssw3696100 0.1 1028229
04:00−4s3696100 0.1 1027217
07:00−5s3596100 0.3 102778
10:00−5s359443 0.0 1028148
13:00−5sse36925 0.0 1027223
16:00−5sse33925 0.0 102846
19:00−8se33895 0.0 102828
22:00−7se45885 0.0 102750
3 october, mon
mon301:00−7se35905 0.0 102748
04:00−6se458988 0.0 102687
07:00−4se499492 0.2 1026268
10:00−3se51293100 0.2 1025525
13:00−2sse6139192 0.4 1025608
16:00−2sse61390100 0.1 1025595
19:00−1sse61390100 0.1 1023550
22:00−1sse61392100 0.3 1022605
4 october, tue
tue401:00−1sse81590100 0.6 1020703
04:00−1sse91893100 0.4 1017728
07:00−1sse101993100 0.8 1015810
10:00−1s101991100 1.8 1013792
13:00−1s91792100 3.4 1011738
16:00−1sse81593100 0.9 1010680
19:00−1sse6139497 1.6 1010560
22:00−1se3696100 0.4 1011242